Decatur, AL

3:57 PM CDT on June 22, 2017 (GMT -0500)
Pryor Regional

Weather History for KDCU - March, 2014

Change the Weather History Date:

Wednesday, March 5, 2014

  Actual Average Record
Temperature  
Mean Temperature 42 °F -  
Max Temperature 57 °F 61 °F 84 °F (1976)
Min Temperature 26 °F 37 °F 10 °F (1960)
Degree Days  
Heating Degree Days 24    
Moisture  
Dew Point 32 °F    
Average Humidity 84    
Maximum Humidity 100    
Minimum Humidity 47    
Precipitation  
Precipitation 0.00 in - - ()
Sea Level Pressure  
Sea Level Pressure 30.15 in    
Wind  
Wind Speed 4 mph (NNE)    
Max Wind Speed 10 mph    
Max Gust Speed -    
Visibility 5 miles    
Events Fog    
Averages and records for this station are not official NWS values.
T = Trace of Precipitation, MM = Missing Value Source: NWS Daily Summary

Daily Weather History Graph

Daily Weather History Graph

Search for Another Location

Airport or City:

Trip Planner

Search our weather history database for the weather conditions in past years. The results will help you decide how hot, cold, wet, or windy it might be!

Date:

Astronomy

Mar. 05, 2014 Rise Set
Actual Time 6:11 AM CST 5:47 PM CST
Civil Twilight 5:46 AM CST 6:12 PM CST
Nautical Twilight 5:17 AM CST 6:41 PM CST
Astronomical Twilight 4:48 AM CST 7:10 PM CST
Moon 8:49 AM CST (3/5) 10:41 PM CST (3/5)
Length of Visible Light 12h 25m
Length of Day
11h 35m
Waxing Crescent, 23% of the Moon is Illuminated
Mar 5
Waxing Crescent
Mar 8
First Quarter
Mar 16
Full
Mar 23
Last Quarter
Mar 30
New

Hourly Weather History & Observations

Time (CST) Temp. Windchill Dew Point Humidity Pressure Visibility Wind Dir Wind Speed Gust Speed Precip Events Conditions
12:53 AM 34.0 °F 28.8 °F 32.0 °F 92% 30.17 in 5.0 mi NNE 5.8 mph - N/A   Clear
1:53 AM 32.0 °F 28.7 °F 30.9 °F 96% 30.16 in 4.0 mi NE 3.5 mph - N/A   Clear
2:53 AM 32.0 °F 28.7 °F 30.9 °F 96% 30.14 in 4.0 mi East 3.5 mph - N/A   Clear
3:19 AM 30.2 °F - 30.2 °F 100% 30.14 in 2.5 mi Calm Calm - N/A   Clear
3:48 AM 28.4 °F - 26.6 °F 93% 30.13 in 0.8 mi Calm Calm - N/A   Clear
3:53 AM 28.0 °F - 27.0 °F 96% 30.14 in 0.8 mi Calm Calm - N/A   Clear
3:59 AM 28.4 °F - 28.4 °F 100% 30.13 in 2.0 mi Calm Calm - N/A   Clear
4:18 AM 28.4 °F - 28.4 °F 100% 30.13 in 1.2 mi Calm Calm - N/A   Clear
4:30 AM 28.4 °F 24.6 °F 28.4 °F 100% 30.14 in 3.0 mi NNE 3.5 mph - N/A   Clear
4:53 AM 28.9 °F - 28.0 °F 96% 30.16 in 3.0 mi Calm Calm - N/A   Clear
5:11 AM 30.2 °F - 28.4 °F 93% 30.16 in 2.5 mi Calm Calm - N/A   Clear
5:29 AM 28.4 °F 24.6 °F 28.4 °F 100% 30.17 in 1.2 mi North 3.5 mph - N/A   Clear
5:53 AM 27.0 °F 20.5 °F 27.0 °F 100% 30.20 in 0.8 mi North 5.8 mph - N/A   Clear
6:02 AM 26.6 °F 20.0 °F 26.6 °F 100% 30.19 in 2.0 mi North 5.8 mph - N/A   Clear
6:11 AM 28.4 °F 22.2 °F 26.6 °F 93% 30.19 in 1.8 mi North 5.8 mph - N/A   Scattered Clouds
6:16 AM 28.4 °F 22.2 °F 28.4 °F 100% 30.19 in 0.8 mi North 5.8 mph - N/A   Mist
6:53 AM 28.9 °F 23.9 °F 28.0 °F 96% 30.21 in 0.2 mi North 4.6 mph - N/A Fog Light Freezing Fog
7:53 AM 32.0 °F - 32.0 °F 100% 30.21 in 1.8 mi Calm Calm - N/A   Mostly Cloudy
7:59 AM 33.8 °F 29.6 °F 33.8 °F 100% 30.19 in 2.5 mi ENE 4.6 mph - N/A   Scattered Clouds
8:09 AM 33.8 °F 30.8 °F 33.8 °F 100% 30.19 in 3.0 mi NNE 3.5 mph - N/A   Partly Cloudy
8:53 AM 39.0 °F 34.8 °F 35.1 °F 86% 30.19 in 6.0 mi ENE 5.8 mph - N/A   Clear
9:53 AM 46.9 °F - 33.1 °F 59% 30.18 in 10.0 mi East 8.1 mph - N/A   Clear
10:53 AM 48.9 °F - 34.0 °F 56% 30.16 in 9.0 mi SE 5.8 mph - N/A   Clear
11:53 AM 52.0 °F - 36.0 °F 54% 30.15 in 10.0 mi NNW 5.8 mph - N/A   Clear
12:53 PM 55.0 °F - 36.0 °F 49% 30.13 in 10.0 mi Variable 3.5 mph - N/A   Clear
1:53 PM 55.9 °F - 36.0 °F 47% 30.10 in 10.0 mi Variable 4.6 mph - N/A   Clear
2:53 PM 57.0 °F - 37.0 °F 47% 30.09 in 10.0 mi North 3.5 mph - N/A   Clear
3:53 PM 55.9 °F - 36.0 °F 47% 30.09 in 10.0 mi NNE 3.5 mph - N/A   Clear
4:53 PM 55.0 °F - 37.9 °F 53% 30.08 in 10.0 mi NNE 6.9 mph - N/A   Clear
5:53 PM 48.9 °F - 39.0 °F 69% 30.09 in 10.0 mi North 10.4 mph - N/A   Clear
6:53 PM 45.0 °F 40.1 °F 37.9 °F 76% 30.12 in 10.0 mi North 9.2 mph - N/A   Clear
7:53 PM 41.0 °F 35.8 °F 37.0 °F 86% 30.15 in 9.0 mi NNE 8.1 mph - N/A   Clear
8:53 PM 39.9 °F 33.4 °F 36.0 °F 86% 30.15 in 8.0 mi North 10.4 mph - N/A   Clear
9:53 PM 39.0 °F 34.8 °F 35.1 °F 86% 30.14 in 8.0 mi NNE 5.8 mph - N/A   Clear
10:53 PM 39.0 °F 35.7 °F 36.0 °F 89% 30.13 in 8.0 mi Variable 4.6 mph - N/A   Clear
11:53 PM 37.9 °F 35.5 °F 36.0 °F 93% 30.13 in 8.0 mi North 3.5 mph - N/A   Clear